• MPC Preparation (Info)

  • MPEC 2000-R08 : 2000 QJ130

    The following Minor Planet Electronic Circular may be linked-to from your own Web pages, but must not otherwise be redistributed electronically.

    A form allowing access to any MPEC is at the bottom of this page.


    Read MPEC 2000-R07 Read MPEC 2000-R09


    M.P.E.C. 2000-R08                                Issued 2000 Sept. 2, 21:23 UT
    
         The Minor Planet Electronic Circulars contain information on unusual
             minor planets and routine data on comets.  They are published
       on behalf of Commission 20 of the International Astronomical Union by the
              Minor Planet Center, Smithsonian Astrophysical Observatory,
                              Cambridge, MA 02138, U.S.A.
    
                 Prepared using the Tamkin Foundation Computer Network
    
                 BMARSDEN@CFA.HARVARD.EDU or GWILLIAMS@CFA.HARVARD.EDU
              URL http://cfa-www.harvard.edu/iau/mpc.html  ISSN 1523-6714
    
                                      2000 QJ130
    
    Observations:
         K00QD0J* C2000 08 29.28724 21 24 41.47 -09 05 27.1          18.0        704
         K00QD0J  C2000 08 29.30072 21 24 42.57 -09 05 44.5          19.4        704
         K00QD0J  C2000 08 29.31411 21 24 43.66 -09 06 04.1          18.6        704
         K00QD0J  C2000 08 29.32759 21 24 44.83 -09 06 21.2          18.3        704
         K00QD0J  C2000 08 31.24496 21 27 51.03 -09 50 34.7          18.7        704
         K00QD0J  C2000 08 31.25820 21 27 52.26 -09 50 52.2          19.0        704
         K00QD0J  C2000 08 31.27143 21 27 53.39 -09 51 11.0          18.7        704
         K00QD0J  C2000 08 31.28468 21 27 54.57 -09 51 29.0          18.4        704
         K00QD0J  C2000 08 31.29794 21 27 55.78 -09 51 47.8          18.7        704
         K00QD0J  C2000 08 31.88979 21 28 56.21 -10 05 36.7                      557
         K00QD0J  C2000 08 31.89144 21 28 56.31 -10 05 38.2                      557
         K00QD0J  C2000 08 31.89307 21 28 56.46 -10 05 41.7                      557
         K00QD0J  C2000 09 01.12005 21 29 20.84 -10 10 49.6          18.2        704
         K00QD0J  C2000 09 01.12319 21 29 21.13 -10 10 55.5          18.0        704
         K00QD0J  C2000 09 01.13378 21 29 22.10 -10 11 09.8          18.2        704
         K00QD0J  C2000 09 01.13696 21 29 22.38 -10 11 14.8          18.3        704
         K00QD0J  C2000 09 01.14723 21 29 23.33 -10 11 29.2          18.1        704
         K00QD0J  C2000 09 01.15036 21 29 23.67 -10 11 32.8          17.9        704
         K00QD0J  C2000 09 01.16056 21 29 24.59 -10 11 47.5          18.6        704
         K00QD0J  C2000 09 01.16369 21 29 24.90 -10 11 52.3          18.1        704
         K00QD0J  C2000 09 01.17389 21 29 25.86 -10 12 05.9          18.7        704
         K00QD0J  C2000 09 01.17702 21 29 26.13 -10 12 11.2          18.2        704
         K00QD0J  C2000 09 01.18188 21 29 26.50 -10 12 16.9                      711
         K00QD0J  C2000 09 01.18741 21 29 27.09 -10 12 25.6          18.0        704
         K00QD0J  C2000 09 01.18956 21 29 27.20 -10 12 27.7                      711
         K00QD0J  C2000 09 01.19585 21 29 27.78 -10 12 36.5                      711
         K00QD0J  C2000 09 01.20066 21 29 28.31 -10 12 43.8          18.3        704
         K00QD0J  C2000 09 01.21382 21 29 29.52 -10 13 02.4          18.4        704
         K00QD0J  C2000 09 01.22703 21 29 30.73 -10 13 20.8          18.7        704
         K00QD0J  C2000 09 01.24022 21 29 31.92 -10 13 40.0          18.5        704
         K00QD0J  C2000 09 01.79812 21 30 30.60 -10 26 42.2          17.6 R      046
         K00QD0J  C2000 09 01.80044 21 30 30.85 -10 26 44.3                      046
         K00QD0J  C2000 09 01.80279 21 30 31.06 -10 26 47.9                      046
         K00QD0J  C2000 09 01.80382 21 30 31.19 -10 26 49.7                      046
         K00QD0J  C2000 09 01.80490 21 30 31.30 -10 26 52.2          17.5 R      046
         K00QD0J  C2000 09 01.81995 21 30 32.84 -10 27 12.2                      595
         K00QD0J FC2000 09 01.82007 21 30 32.89 -10 27 11.0                      118
         K00QD0J FC2000 09 01.82297 21 30 33.08 -10 27 15.8                      118
         K00QD0J  C2000 09 01.82675 21 30 33.47 -10 27 21.1          18.4 V      595
         K00QD0J  C2000 09 01.83368 21 30 34.17 -10 27 30.7                      595
         K00QD0J  C2000 09 01.85220 21 30 36.03 -10 27 56.0                      587
         K00QD0J  C2000 09 01.86046 21 30 36.84 -10 28 08.8                      587
         K00QD0J  C2000 09 01.86575 21 30 37.16 -10 28 16.8                      557
         K00QD0J  C2000 09 01.87123 21 30 37.71 -10 28 24.5                      557
         K00QD0J  C2000 09 01.87896 21 30 38.50 -10 28 33.4          18.2        106
         K00QD0J  C2000 09 01.89568 21 30 40.07 -10 28 57.4          18.1        106
         K00QD0J  C2000 09 01.91240 21 30 41.68 -10 29 19.9          18.1        106
         K00QD0J  C2000 09 02.15710 21 31 08.41 -10 34 56.4                      711
         K00QD0J IC2000 09 02.16346 21 31 08.97 -10 35 00.2                      711
         K00QD0J  C2000 09 02.16951 21 31 09.60 -10 35 13.5                      711
         K00QD0J  C2000 09 02.19479 21 31 12.08 -10 35 49.5          18.0        704
         K00QD0J  C2000 09 02.19488 21 31 12.07 -10 35 49.7          17.9        704
         K00QD0J  C2000 09 02.19498 21 31 12.07 -10 35 49.9          18.2        704
         K00QD0J  C2000 09 02.20825 21 31 13.34 -10 36 08.5          18.3        704
         K00QD0J  C2000 09 02.20834 21 31 13.32 -10 36 09.1          18.6        704
         K00QD0J  C2000 09 02.20844 21 31 13.30 -10 36 09.0          18.3        704
         K00QD0J  C2000 09 02.22172 21 31 14.55 -10 36 26.7          18.2        704
         K00QD0J  C2000 09 02.22182 21 31 14.57 -10 36 27.2          18.2        704
         K00QD0J  C2000 09 02.22191 21 31 14.56 -10 36 27.5          18.0        704
         K00QD0J  C2000 09 02.23518 21 31 15.92 -10 36 46.4          18.5        704
         K00QD0J  C2000 09 02.23528 21 31 15.87 -10 36 46.5          18.3        704
         K00QD0J  C2000 09 02.23538 21 31 15.91 -10 36 46.7          18.3        704
         K00QD0J  C2000 09 02.24865 21 31 17.16 -10 37 05.7          18.2        704
         K00QD0J  C2000 09 02.24875 21 31 17.15 -10 37 05.3          18.7        704
         K00QD0J  C2000 09 02.24885 21 31 17.13 -10 37 05.1          18.4        704
    
    Observer details:
    046 Klet.  Observers J. Ticha, M. Tichy.  0.57-m f/5.2 reflector + CCD.
    106 Crni Vrh.  Observers H. Mikuz, S. Maticic.  0.36-m f/6.7 Schmidt-Cassegrain
        + CCD.
    118 Modra.  Observers A. Galad, J. Toth.  0.6-m f/5.5 reflector + CCD.
    557 Ondrejov.  Observers P. Pravec, P. Kusnirak, U. Babiakova.  0.65-m f/3.6
        reflector + CCD.
    587 Sormano.  Observer F. Manca.  0.5-m reflector + CCD.
    595 Farra d'Isonzo.  Observers G. Lombardi, L. Bittesini, E. Pettarin.  0.40-m
        f/4.5 reflector + CCD.
    704 Lincoln Laboratory ETS, New Mexico.  Observers M. Blythe, F. Shelly,
        M. Bezpalko, M. Elowitz, R. Huber, L. Manguso.  Measurers J. Stuart,
        R. Sayer, J. B. Evans, H. Viggh.  1.0-m f/2.15 reflector + CCD.
    711 McDonald Observatory.  Observers P. J. Shelus, J. A. Shelus.  0.76-m
        reflector + CCD.
    
    Orbital elements:
    2000 QJ130
    Epoch 2000 Aug. 24.0 TT = JDT 2451780.5                 Williams
    M 353.53479              (2000.0)            P               Q
    n   0.25276039     Peri.  187.53833     +0.98467123     +0.17001611
    a   2.4774032      Node   162.52665     -0.15249503     +0.94754652
    e   0.4931758      Incl.    7.45337     -0.08466304     +0.27064757
    P   3.90           H   19.2           G   0.15
    From 65 observations 2000 Aug. 29-Sept. 2.
    
    Ephemeris:
    2000 QJ130               a,e,i = 2.48, 0.49, 7                   q = 1.2556
    Date    TT    R. A. (2000) Decl.     Delta      r     Elong.  Phase     V
    2000 08 24    21 17.14   -07 07.5    0.281    1.285   165.7    11.2    17.7
    2000 09 03    21 32.63   -10 54.1    0.270    1.267   160.8    15.2    17.7
    2000 09 13    21 53.25   -14 35.8    0.271    1.257   154.9    19.8    17.9
    2000 09 23    22 18.02   -17 28.9    0.285    1.257   149.2    24.2    18.1
    2000 10 03    22 45.05   -19 04.9    0.311    1.265   144.1    27.7    18.4
    2000 10 13    23 12.38   -19 17.4    0.348    1.283   139.7    30.2    18.8
    2000 10 23    23 38.46   -18 18.6    0.396    1.309   135.8    32.0    19.1
    2000 11 02    00 02.71   -16 26.8    0.457    1.342   132.1    33.3    19.5
    2000 11 12    00 25.20   -14 00.3    0.528    1.382   128.5    34.1    19.9
    2000 11 22    00 46.18   -11 14.5    0.611    1.427   124.7    34.7    20.3
    2000 12 02    01 06.09   -08 20.0    0.706    1.477   120.7    35.0    20.7
    2000 12 12    01 25.31   -05 24.4    0.811    1.531   116.6    35.1    21.1
    2000 12 22    01 44.07   -02 33.1    0.928    1.587   112.2    35.0    21.5
    2001 01 01    02 02.63   +00 11.1    1.055    1.646   107.6    34.7    21.8
    
    Gareth V. Williams           (C) Copyright 2000 MPC           M.P.E.C. 2000-R08
    

    Read MPEC 2000-R07 Read MPEC 2000-R09


    MPEC number:

    Enter an MPEC number in one of the following forms:

    • 1997-B01 (the full form)
    • J97B01 (the packed version of the full form)
    • B01 (the abbreviated form)